Regional Weather Roundup
Issued by NWS

Home | Current Version | Previous Version | Text Only | Print | Product List | Glossary Off
Versions: 1 2 3 4 5 6 7 8 9 10 11 12 13 14 15 16 17 18 19 20 21 22 23 24 25 26 27 28 29 30 31 32 33 34 35 36 37 38 39 40 41 42 43 44 45 46 47 48 49 50

000
ASUS43 KFSD 231910
RWRSD

WEATHER ROUNDUP FOR SOUTH DAKOTA
NATIONAL WEATHER SERVICE SIOUX FALLS SD
100 PM CST FRI FEB 23 2018

NOTE: "FAIR" INDICATES FEW OR NO CLOUDS BELOW 12,000 FEET WITH NO
SIGNIFICANT WEATHER AND/OR OBSTRUCTIONS TO VISIBILITY.


SDZ001>005-009-010-012>017-232000-
NORTHWEST AND NORTH CENTRAL SOUTH DAKOTA

CITY           SKY/WX    TMP DP  RH WIND       PRES   REMARKS
BUFFALO          N/A      3  -4  72 SW3       30.07F
FAITH            N/A      9   0  67 NW5       30.20S WCI   1
MOBRIDGE       SUNNY     14   3  61 NW6       30.23F WCI   5
$$

SDZ012>016-024>037-041>051-057-063-072>074-232000-
SOUTHWEST AND SOUTH CENTRAL SOUTH DAKOTA

CITY           SKY/WX    TMP DP  RH WIND       PRES   REMARKS
RAPID CTY ARPT SUNNY     12   5  73 E5        30.16F WCI   4
PIERRE         SUNNY     11   5  77 W8        30.28F WCI  -1
CUSTER         SUNNY     24  -3  30 VRB3      30.00F
ELLSWORTH AFB  SUNNY     16   6  64 S6        30.14F WCI   7
PHILIP         SUNNY     12   2  64 W8        30.25F WCI   0
PINE RIDGE     SUNNY     18   7  62 S5        30.17F WCI  11
SPEARFISH        N/A     16   3  57 NE6       30.07F WCI   7
WINNER         FAIR      15   6  67 NW7       30.27F WCI   5
$$

SDZ004>011-016>023-039-040-232000-
NORTHEAST SOUTH DAKOTA

CITY           SKY/WX    TMP DP  RH WIND       PRES   REMARKS
ABERDEEN       SUNNY     20  11  68 W7        30.27S WCI  11
WATERTOWN      CLOUDY    19  16  88 W9        30.21S WCI   8
BROOKINGS      CLOUDY    23  18  81 W12       30.25R WCI  12
SISSETON         N/A     21  11  65 NW15      30.23S WCI   8
$$

SDZ017-020-022-023-036>040-048>070-232000-
SOUTHEAST SOUTH DAKOTA

CITY           SKY/WX    TMP DP  RH WIND       PRES   REMARKS
SIOUX FALLS    CLOUDY    21  17  84 NW9       30.27S WCI  11
HURON          SUNNY     17  11  77 NW9       30.29S WCI   6
CHAMBERLAIN    SUNNY     15   9  77 SW5       30.29S WCI   8
MITCHELL       SUNNY     18  12  77 W9        30.32R WCI   7
YANKTON        CLOUDY    21  16  81 NW10      30.31S WCI  10
$$

ABBREVIATIONS USED IN REMARKS
   TC - TEMPERATURE IN CELSIUS
  WCI - WIND CHILL INDEX
   HX - HEAT INDEX
  VSB - VISIBILITY




USA.gov is the U.S. government's official web portal to all federal, state and local government web resources and services.